User: anonymous   Login
Location: Unspecified
(0.0000°N, 0.0000°E)
Time: 04:46:09
(UTC+02:00)
Language:

Delta 168 - Orbit

View from above orbital plane
View from above orbital plane
View from above satellite
View from above satellite

Ground track
Ground track

The orbit data is extracted from the following two-line orbital elements,

1 14051U 83041B   15115.45271642  .00004277  00000-0  40187-3 0  9994
2 14051 025.3429 288.4539 1113601 267.8208 192.9663 13.04719345475822
Epoch (UTC): 25 April 2015 10:51:54
Eccentricity: 0.1113601
inclination: 25.3429°
perigee height: 395 km
apogee height: 2092 km
right ascension of ascending node: 288.4539°
argument of perigee: 267.8208°
revolutions per day: 13.04719345
mean anomaly at epoch: 192.9663°
orbit number at epoch: 47582

The dashed part of the orbit path shows where the satellite is in the earth's shadow,  

DLR